Погода в Жезказгане

Погода в Жезказгане : погода сейчас, прогноз погоды и архив. Всё, что Вы хотите узнать о погоде в Жезказгане!

Хотите узнать прогноз погоды в Жезказгане? Тогда Вам сюда: Погода в Жезказгане

Поиск расширенной информации на нашем сайте:

Другие новости

Новости СМИ2

Главная страница сайта

Новости сайта

02.10.2013

Напоминаем, что на нашем новом сайте вы можете получить высокодетализированные прогнозы погоды по пунктам России, СНГ и мира (включающие важные для авиации метеовеличины, такие как направление и скорость ветра, видимость, явления погоды, количество и форма облачности, нижняя и верхняя граница облачности), а также ознакомиться с разнообразными материалами по авиационной метеорологии и подборкой полезных ссылок на эту тему.

Сайт Метеоцентр.Азия посвящён разработке технологий оптимизации авиаметеорологического обслуживания, включая проектирование и перспективное создание нескольких автоматизированных авиаметеорологических систем:
- система выпуска высокодетальных прогностических карт явлений погоды для нижнего воздушного пространства по России и ближнему зарубежью;
- система верификации прогнозов TAF (выпускаемых синоптиками официальных АМСГ РФ и ближнего зарубежья) и AUTOTAF (выпускаемых сайтом Метеоцентр.Азия) - выявление ошибок, онлайн-сопоставление с фактической погодой METAR, автоматическое внесение коррективов в прогнозы при резком отклонении фактической погоды от прогноза, подсчёт оправдываемости прогнозов по элементам и в целом;
- система обработки, анализа и отображения авиаметеорологической информации для применения провайдерами метеорологической информации.

Рекомендуем: Джинтропин цена подробнее.

Погода в Жезказгане - сегодня

Время (UTC), дата Ветер
(°,м/с) 
Видим.   Явления Облачность Т
(°С)
Тd
(°С)
f(%) Тe
(°С)
Pmin
(гПа)
dP
(гПа)
Po
(мм)
O2
(г/м3)
Тmin Tmax R s Состояние
почвы
15 21.01.17 240 (ЮЗ) 20000 м  позёмок  ясно 
-17.7 -20.3 80 -25  1026  0.5  735  318    -13       
18 21.01.17 220 (ЮЗ) 20000 м  позёмок  ясно 
-18.5 -20.8 82 -25  1026.2  0.1  735  319    -13       
21 21.01.17 130 (ЮВ) 20000 м    ясно 
-19.8 -22.1 82 -25  1025.8  -0.6  735  321           
00 22.01.17 140 (ЮВ) 20000 м    ясно 
-24.4 -26.6 82 -28  1026.2  -0.6  734  327           
03 22.01.17 120 (ЮВ) 20000 м    8/0 средняя, верхняя 
[Ac lent|Ci fib]
-21.2 -23.5 82 -24  1024.3  -1.1  733  322        12  равномерный
сухой снег
100% 
06 22.01.17 120 (ЮВ) 20000 м    10/0 средняя 
[Ac As]
-16.5 -19.1 80 -19  1021.6  -1.8  732  315  -24.5         
09 22.01.17 190 (Ю) 20000 м  позёмок{снег}  10/10 600 м 
[Sc]
-8 -10.2 84 -13  1017.5  -2.5  730  304           
12 22.01.17 200 (Ю) 20000 м  позёмок{снег}  10/10 600 м 
[Sc]
-5.2 -7.3 85 -10  1015.1  -1.8  729  300           
15 22.01.17 200 (Ю) 20000 м  позёмок  10/10 600 м 
[Sc]
-5.5 -7.6 85 -10  1013.6  -1.5  728  300    -5  0.2     
18 22.01.17 200 (Ю) 4000 м  позёмок{снег}  10/10 600 м 
[Sc]
-4 -5.5 89 -9  1011.5  -1.7  726  298    -5  0.2     
21 22.01.17 190 (Ю) 11-15{16}  4000 м  позёмок  10/10 600 м 
[Sc]
-3 -4.3 91 -9  1009.5  -1.8  725  296           
00 23.01.17 220 (ЮЗ) 10-15{16}  4000 м  позёмок{снег}  10/10 600 м 
[Sc]
-4.6 -5.9 91 -11  1011.1  1.2  726  298           
03 23.01.17 240 (ЮЗ) 10-15{16}  4000 м  позёмок  6/6 600 м 
[Sc]
-7.1 -8.8 88 -14  1013.4  1.9  727  302      0.6  12  равномерный
сухой снег
100% 
06 23.01.17 240 (ЮЗ) 8{15}  20000 м  позёмок  ясно 
-12.6 -16.1 75 -20  1018.6  730  310  -7.2    0.6     
09 23.01.17 230 (ЮЗ) 20000 м  позёмок  5/0 верхняя 
[Ci fib]
-11.8 -15.8 72 -19  1020.4  1.8  732  309           
12 23.01.17 220 (ЮЗ) 20000 м  позёмок  5/0 верхняя 
[Ci fib]
-13.5 -16.8 76 -20  1022.6  1.9  733  312           
15 23.01.17 190 (Ю) 20000 м  позёмок  8/0 средняя, верхняя 
[Ac lent|Ci fib]
-14.4 -16.5 84 -21  1023.3  0.5  733  313    -7.1       
18 23.01.17 180 (Ю) 4000 м  позёмок  10/10 600 м 
[Sc]
-11.6 -13.5 86 -17  1022.5  -0.3  733  310    -7.1       
21 23.01.17 210 (ЮЗ) 4000 м  позёмок{снег}  10/10 600 м 
[Sc]
-9.7 -11.8 85 -15  1022.5  0.3  733  307           
00 24.01.17 230 (ЮЗ) 4000 м  дымка{снег}  5/5 600 м 
[Sc]
-12 -13.7 87 -17  1024.8  1.8  735  311           
03 24.01.17 220 (ЮЗ) 20000 м    9/8 600 м средняя 
[Sc|Ac lent]
-13.3 -15.3 85 -18  1027.6  2.5  737  313      0.0  12  равномерный
сухой снег
100% 
06 24.01.17 220 (ЮЗ) 20000 м    ясно 
-12.1 -15.3 77 -15  1030.2  2.7  739  313  -14.4    0.0     
09 24.01.17 210 (ЮЗ) 20000 м    ясно 
-13 -17.2 71 -16  1031.9  1.5  740  314           
12 24.01.17 200 (Ю) 20000 м    ясно 
-14.7 -18 76 -17  1033.7  1.4  741  317           
15 24.01.17 210 (ЮЗ) 20000 м    4/4 600 м 
[Sc]
-15.3 -17.7 82 -19  1035.3  1.4  742  318    -12       
Время (UTC), дата Ветер
(°,м/с) 
Видим.   Явления Облачность Т
(°С)
Тd
(°С)
f(%) Тe
(°С)
Pmin
(гПа)
dP
(гПа)
Po
(мм)
O2
(г/м3)
Тmin Tmax R s Состояние
почвы

Для получения пояснительной информации подведите курсор к названию столбца.

ПОГОДА в Жезказгане - архив

Всё, что Вы хотите узнать о погоде в Жезказгане - удобно и подробно!

Выберите нужную дату (начиная с 1 января 2015* года) и нажмите кнопку "Найти".
Будут отображены архивные сводки погоды по пункту Жезказган, начиная с указанной даты.


Отображать данные в формате CSV (для использования в таблицах Excel)


Внимание! Наш архив погоды предназначен исключительно для личного некоммерческого использования в познавательных целях. Если Вам необходимы официальные справки о состоянии погоды (для производственных, юридических, коммерческих и т.п. целей), обращайтесь в органы Росгидромета.

*Примечание: данная дата относится к архиву по метеостанциям СССР (Россия, СНГ, Балтия).
Архив по метеостанциям Зарубежной Европы и Азии (кроме Китая) хранится 10 дней, по другим регионам земного шара (Китай, Африка, Америка, Австралия, Океания) - 1 день.

Жезказган - район местоположения метеостанции


Название, широта, долгота, высота метеостанции:
Жезказган 47.8°ш. 67.7°д. 346 м над ур. моря [Казахстан]

Дополнительная информация

В oтличие oт бoльшинства пoгoдных сайтoв мы публикуем пoдрoбную метеoинфoрмацию в детальнoм прoфессиoнальнoм фoрмате.

Характеристики температуры и влажнoсти вoздуха измеряются на высoте 2 м в тени вдали oт зданий и деревьев.
Скoрoсть ветра измеряется на высoте 10 м (на урoвне рoста челoвека скoрoсть ветра ниже в 1.5-2 раза). Если метеoстанция нахoдится в гoрoде или в лесу, тo скoрoсть ветра занижена на 2-4 м/с пo сравнению с oткрытым местoм. Скoрoсть ветра над акватoриями крупных рек и oзёр, а также на вершинах хoлмoв на 2-5 м/с выше, чем в oбычных услoвиях.
Атмoсфернoе давление в разных тoчках местнoсти мoжет значительнo oтличаться oт давления на метеoстанции, в зависимoсти oт услoвий рельефа (при пoдъёме на 10 м давление пoнижается примернo на 1 мм рт.ст.).